Wind_Speed
23 23 22 22 21 19 18 17 15 14 14 14 14 14 16 17 18 18 18 19 21 23 24 27 29 31 30 20 10 8 5 7 9 5 6 6 10 6 4 3 4 2 2 5 12 20 14
25 24 24 24 23 21 20 18 17 16 15 15 15 15 16 17 18 19 19 20 24 25 25 28 30 30 25 8 11 5 5 4 1 2 5 7 5 4 1 3 3 4 9 14 10 11 5
26 25 25 25 24 23 22 20 19 17 16 15 14 15 16 17 19 18 20 23 25 26 28 29 29 26 22 24 10 7 2 4 4 4 3 3 3 2 3 5 4 6 9 8 1 3 1
28 28 27 26 25 25 23 22 21 19 17 15 15 14 16 16 19 19 22 26 25 28 27 28 26 22 11 12 6 7 9 6 4 3 3 4 4 4 3 2 4 4 1 4 1 7 2
29 28 28 28 27 26 25 24 22 20 18 16 15 14 15 16 18 22 24 27 27 26 25 19 22 12 8 2 3 8 7 4 6 3 8 7 4 2 1 1 2 2 4 3 6 2 4
30 29 29 30 29 27 26 25 23 21 19 18 16 15 15 15 18 22 25 26 21 22 9 22 9 8 2 1 3 5 10 11 10 12 8 2 2 1 1 3 4 4 4 4 9 3 12
33 31 31 31 31 29 28 26 24 23 21 19 17 16 15 15 17 21 25 27 17 6 22 12 24 23 28 26 24 19 13 9 14 6 3 1 2 8 7 8 2 2 4 11 11 12 6
37 35 34 32 32 31 30 28 26 24 22 20 19 17 16 16 17 19 20 15 12 13 17 28 24 24 19 10 5 4 4 7 6 5 2 1 6 4 2 3 6 7 9 14 10 8 6
40 38 37 35 33 33 32 30 28 27 24 22 21 19 18 17 17 19 18 13 11 14 9 11 6 8 3 2 2 1 4 6 4 4 4 3 1 4 2 2 4 4 7 6 10 8 5
42 41 39 39 37 34 34 33 31 29 28 26 23 21 21 17 17 12 9 7 9 12 4 6 2 1 1 1 3 1 4 3 2 3 5 3 2 1 2 3 6 3 7 9 7 4 6
42 43 43 43 40 38 37 36 35 33 31 29 26 24 24 20 14 14 12 8 4 6 5 0 1 2 1 3 4 1 5 2 3 3 3 3 4 3 3 4 6 5 3 3 4 7 4
39 39 41 42 45 42 41 39 36 36 34 32 30 28 27 27 24 23 15 7 3 3 7 3 1 1 1 2 2 1 3 2 2 2 2 5 2 3 5 5 6 1 3 1 2 2 9
46 42 42 41 44 42 41 42 39 37 36 35 33 32 34 34 34 25 21 14 1 5 1 3 2 1 1 3 2 3 4 4 4 1 1 2 3 3 2 6 1 2 2 4 4 4 7
49 50 46 39 39 39 41 39 43 40 38 35 35 34 37 40 38 33 28 3 9 8 7 1 3 2 4 2 3 1 1 4 0 4 3 4 3 2 1 2 1 2 3 3 6 5 9
52 52 51 49 47 43 39 37 38 45 40 36 33 37 41 43 40 40 22 7 8 7 7 7 2 2 4 3 2 2 4 3 2 6 8 6 6 2 3 1 1 3 4 1 3 1 7
50 52 52 53 51 48 44 40 38 37 43 40 37 41 44 41 37 35 7 26 7 8 7 5 13 11 7 6 6 4 6 3 4 2 2 3 4 1 2 1 2 2 3 3 1 6 13
50 50 50 53 54 52 50 46 40 36 34 34 39 18 24 31 31 19 10 7 5 10 10 6 13 9 6 7 7 7 5 2 5 4 4 1 2 1 1 2 1 1 3 3 2 4 11
52 52 49 50 54 53 51 49 44 38 29 34 26 4 17 27 8 5 8 5 3 5 8 3 4 8 10 11 8 9 10 3 11 8 5 3 3 5 6 3 2 2 5 3 5 7 2
52 52 50 49 50 48 51 52 48 41 35 34 13 8 26 35 6 6 4 3 4 6 7 8 7 5 0 6 3 5 6 3 13 6 8 6 2 5 3 3 2 3 4 4 3 2 10
51 49 49 49 49 49 50 46 50 48 38 37 14 5 6 13 7 11 10 7 7 6 3 7 3 5 4 7 2 7 6 1 4 4 6 6 6 9 10 6 3 12 17 16 9 7 14
49 49 46 47 49 51 47 53 50 42 42 44 14 4 16 7 11 5 13 11 12 11 13 12 5 13 17 8 6 5 4 1 5 8 5 3 5 9 13 13 16 18 19 14 17 20 17
48 47 49 49 48 48 49 46 49 44 40 44 15 8 13 6 22 16 11 12 16 13 12 7 12 10 10 8 8 7 7 5 4 4 5 1 4 8 16 13 16 22 16 17 19 22 19
47 47 48 49 52 50 53 49 49 44 42 29 17 18 17 13 9 11 16 20 15 13 7 8 12 9 9 9 11 7 2 4 5 5 10 6 3 3 6 11 11 12 14 19 16 16 13
47 49 50 49 50 51 51 51 49 51 51 41 28 21 9 5 11 15 11 17 17 18 9 6 19 6 8 12 12 5 8 13 16 15 14 7 9 4 6 7 8 3 3 5 11 15 12
48 49 51 52 52 51 51 54 48 49 50 51 40 29 16 3 11 7 12 8 16 16 5 7 7 12 22 10 3 3 3 3 10 17 14 12 8 4 4 8 13 14 6 3 2 6 9
52 53 53 53 52 50 48 55 46 51 49 53 43 43 27 8 11 16 13 25 7 6 4 6 17 22 10 2 2 4 4 2 3 2 6 11 10 7 5 5 7 2 5 2 4 9 7
57 60 58 55 53 51 50 52 47 46 41 59 41 42 27 9 8 28 7 15 13 7 5 6 11 6 9 3 3 3 4 3 4 5 6 5 4 12 10 8 8 2 3 2 5 6 12
70 73 66 60 56 49 50 49 44 44 58 55 30 34 33 10 14 13 19 17 16 9 5 11 6 2 2 3 3 3 3 3 1 2 4 7 6 5 7 7 13 6 3 3 7 16 20
50 69 69 63 54 45 47 43 51 58 62 45 34 27 27 19 14 20 23 21 16 10 19 13 3 6 6 4 2 3 2 3 4 3 1 4 4 2 4 4 3 12 10 15 18 25 24
Wind_Direction
239 239 241 244 247 250 254 257 262 268 276 283 291 301 306 312 317 322 327 330 331 332 329 327 328 326 328 318 306 297 281 309 312 329 32 35 49 11 357 327 328 221 294 296 286 291 281
244 244 243 244 248 250 253 256 258 264 272 279 288 296 305 311 316 321 324 328 329 329 323 322 322 320 319 295 297 265 306 336 5 27 59 51 42 21 95 316 317 298 281 287 285 282 252
243 244 246 244 243 247 251 253 257 261 267 274 284 294 303 310 313 317 321 326 329 328 324 319 317 314 305 291 272 237 300 124 71 24 48 32 3 27 333 301 301 293 307 313 211 332 120
247 245 244 246 247 248 250 251 255 257 261 268 276 289 295 308 312 315 321 324 330 323 323 318 316 311 277 287 284 251 201 172 79 69 17 328 311 271 195 240 326 305 16 327 276 357 64
247 247 247 247 245 247 250 251 251 254 258 262 269 280 291 303 310 314 319 324 331 325 316 326 317 317 289 349 89 171 192 221 241 261 326 317 284 222 176 122 299 22 280 277 302 30 6
246 247 247 247 247 246 247 249 249 250 254 257 263 273 284 297 309 315 320 328 338 325 341 326 312 324 270 167 276 253 248 273 287 296 307 197 121 139 92 185 264 260 271 256 271 265 315
246 247 247 247 246 245 246 246 246 247 249 253 258 266 278 290 305 313 324 341 349 325 314 283 283 276 283 289 285 292 273 256 246 248 221 360 193 232 239 225 268 232 242 266 277 276 295
245 245 246 246 246 245 245 246 246 246 247 249 255 261 271 284 295 305 322 336 336 311 302 310 293 279 282 279 287 18 78 155 159 197 144 70 249 226 229 224 228 244 268 276 283 281 212
243 244 245 245 245 246 243 244 245 246 246 248 252 259 267 276 288 296 310 317 331 334 291 305 299 284 287 216 270 22 126 129 117 134 191 191 58 98 271 242 220 247 239 258 269 320 261
242 242 244 245 244 245 245 243 243 245 246 246 249 254 261 269 283 286 316 324 346 340 332 280 274 267 252 297 281 219 167 147 119 162 163 225 279 224 238 249 179 272 229 258 283 308 293
245 243 244 243 243 245 244 244 244 244 244 245 247 250 254 255 254 270 287 301 342 348 310 260 199 170 324 233 301 120 175 143 160 161 137 219 188 214 215 217 184 244 170 244 282 270 312
237 238 240 242 243 249 244 243 243 244 244 243 245 246 247 247 242 256 258 199 139 78 248 298 191 218 231 247 279 186 170 173 124 130 323 264 308 233 220 225 190 200 253 174 103 201 259
241 240 243 244 241 244 245 242 241 242 243 244 244 244 246 244 242 242 223 188 104 201 60 226 200 147 203 240 247 205 187 185 196 253 260 327 243 282 226 270 137 133 175 280 248 203 260
245 242 242 242 244 242 241 244 240 240 241 243 245 247 250 250 247 240 206 111 224 178 197 147 171 177 199 169 244 255 230 239 91 144 158 224 268 204 90 235 281 192 202 223 280 269 283
247 245 243 243 244 246 242 241 247 237 238 240 242 245 249 246 241 230 184 218 221 161 188 167 112 228 216 225 248 232 233 227 210 190 195 181 217 300 80 118 292 154 219 328 285 192 278
247 246 243 243 241 241 244 244 242 239 238 238 236 240 242 246 236 206 203 239 223 184 133 163 206 195 189 191 192 201 201 155 184 246 258 185 270 207 330 127 79 221 142 248 311 280 269
249 246 242 239 241 241 240 243 242 241 241 245 228 210 236 232 205 185 220 218 229 216 190 189 219 224 212 175 202 197 213 152 184 162 171 159 206 200 68 103 194 283 249 231 274 243 272
248 247 243 239 238 239 239 239 241 235 240 248 209 179 189 184 158 196 230 186 228 174 196 277 313 239 213 174 192 215 207 216 169 161 168 219 175 212 229 203 154 198 264 237 220 254 275
246 244 244 239 238 237 237 235 236 234 236 215 172 145 174 173 165 194 196 237 200 175 187 184 215 218 42 193 234 218 188 174 159 151 165 179 216 289 228 146 124 187 139 122 333 246 255
246 243 242 240 236 233 231 232 231 231 234 219 160 125 165 218 207 189 183 201 207 203 246 207 213 160 157 221 199 208 179 164 93 117 153 135 218 226 249 262 279 272 276 287 278 258 267
243 241 240 238 233 231 233 233 231 228 226 214 185 169 164 192 226 175 183 176 198 201 203 209 217 222 192 194 189 207 191 186 291 187 155 126 245 238 248 257 264 261 264 253 239 246 247
238 242 241 238 234 231 230 231 232 226 221 206 170 144 168 165 202 194 183 208 205 200 173 193 222 191 197 191 179 176 170 191 190 235 245 226 262 264 267 260 259 268 262 250 243 247 252
237 239 240 238 235 231 228 229 226 224 217 208 189 174 179 164 179 186 210 216 212 174 203 211 177 167 196 195 164 176 180 185 211 215 198 191 207 237 271 265 285 281 239 234 241 238 247
236 237 239 238 236 232 229 228 228 222 219 213 202 185 153 171 191 207 205 206 214 201 186 152 160 140 162 144 167 183 227 237 236 235 225 214 213 226 271 285 260 252 165 211 230 253 254
238 237 237 239 239 236 233 226 225 226 221 214 211 196 187 147 187 195 206 173 142 127 122 145 153 157 147 124 132 153 170 214 231 232 224 219 208 241 235 226 283 294 300 295 273 287 39
240 238 238 239 238 233 229 225 226 225 223 215 214 214 201 131 202 160 155 160 150 141 116 132 140 148 145 125 139 177 186 171 202 138 207 201 222 219 199 246 268 37 171 205 208 267 21
244 240 237 235 233 232 221 226 223 220 221 210 201 198 182 114 145 153 156 159 143 128 114 141 153 141 154 127 153 172 210 161 196 186 171 166 189 220 231 245 267 350 317 159 249 324 326
250 243 234 235 229 223 219 221 225 215 208 197 177 179 187 108 144 159 145 137 130 137 134 153 109 128 122 139 157 181 202 186 193 219 196 186 192 199 223 244 258 39 319 254 348 314 308
242 233 226 220 213 207 219 219 200 196 191 177 144 154 160 120 127 138 138 129 125 133 131 162 140 145 152 113 155 125 172 173 165 220 198 230 216 182 220 240 302 301 259 289 297 294 298
Height
1521 1523 1526 1529 1531 1532 1534 1536 1537 1538 1539 1540 1539 1539 1539 1539 1537 1535 1533 1531 1529 1526 1522 1519 1515 1512 1509 1506 1502 1500 1499 1499 1499 1499 1498 1499 1499 1501 1502 1501 1498 1498 1496 1495 1493 1491 1490
1516 1519 1521 1524 1527 1529 1531 1533 1534 1535 1536 1537 1537 1537 1537 1536 1535 1533 1531 1528 1526 1524 1520 1516 1512 1510 1508 1505 1498 1497 1497 1498 1498 1497 1498 1498 1500 1500 1501 1501 1500 1497 1495 1491 1488 1486 1487
1510 1513 1516 1519 1521 1524 1526 1528 1531 1532 1533 1534 1535 1535 1535 1534 1533 1531 1529 1526 1523 1520 1516 1512 1508 1505 1503 1498 1496 1496 1496 1497 1497 1497 1497 1497 1497 1498 1499 1498 1498 1496 1492 1487 1485 1486 1485
1505 1508 1510 1514 1517 1519 1522 1524 1527 1528 1530 1531 1532 1532 1533 1531 1531 1528 1525 1523 1520 1516 1512 1508 1503 1500 1496 1493 1493 1493 1494 1494 1496 1496 1496 1496 1496 1496 1496 1496 1496 1495 1495 1492 1482 1483 1483
1498 1502 1505 1508 1511 1514 1517 1520 1522 1524 1527 1528 1528 1529 1529 1529 1528 1526 1523 1521 1518 1513 1508 1505 1500 1498 1494 1493 1493 1494 1494 1494 1494 1495 1495 1493 1494 1495 1496 1496 1497 1498 1494 1496 1486 1482 1481
1491 1495 1498 1502 1505 1508 1512 1515 1517 1520 1523 1524 1525 1525 1526 1526 1525 1523 1521 1518 1514 1509 1506 1503 1498 1499 1493 1492 1492 1492 1492 1492 1493 1493 1493 1492 1491 1495 1497 1496 1499 1494 1495 1494 1490 1482 1479
1485 1488 1492 1496 1499 1502 1506 1509 1512 1515 1518 1520 1521 1521 1523 1523 1522 1521 1519 1516 1513 1509 1505 1504 1499 1493 1491 1490 1488 1484 1484 1485 1488 1493 1493 1492 1493 1491 1491 1493 1494 1495 1495 1492 1484 1480 1483
1476 1480 1485 1489 1492 1496 1500 1503 1507 1510 1513 1516 1518 1518 1519 1520 1520 1519 1519 1519 1518 1517 1499 1492 1489 1487 1486 1486 1485 1482 1482 1485 1486 1489 1492 1495 1492 1489 1492 1493 1494 1494 1495 1489 1484 1479 1480
1467 1472 1477 1482 1485 1489 1493 1497 1501 1506 1508 1511 1514 1516 1516 1517 1517 1516 1517 1518 1516 1515 1508 1488 1487 1485 1485 1486 1483 1482 1482 1482 1485 1490 1492 1492 1490 1489 1491 1492 1495 1495 1495 1491 1487 1481 1476
1457 1462 1468 1473 1477 1481 1486 1490 1494 1499 1503 1506 1509 1511 1513 1515 1518 1513 1515 1516 1515 1514 1514 1492 1485 1485 1485 1485 1485 1482 1481 1482 1484 1486 1489 1491 1488 1488 1490 1491 1492 1496 1486 1487 1488 1488 1483
1446 1452 1459 1464 1469 1473 1477 1482 1487 1492 1497 1501 1504 1506 1508 1511 1512 1511 1515 1516 1515 1515 1522 1486 1485 1485 1484 1486 1485 1482 1481 1482 1485 1485 1486 1484 1485 1486 1487 1485 1486 1486 1484 1486 1486 1487 1490
1439 1442 1447 1452 1459 1464 1468 1473 1478 1484 1490 1494 1498 1500 1502 1504 1506 1509 1512 1513 1516 1521 1514 1488 1483 1483 1485 1484 1483 1481 1481 1481 1483 1485 1487 1484 1484 1483 1480 1478 1479 1478 1480 1483 1488 1486 1483
1429 1433 1438 1443 1447 1453 1458 1464 1469 1475 1481 1487 1491 1494 1494 1496 1497 1502 1506 1511 1517 1514 1489 1486 1484 1484 1485 1483 1482 1480 1480 1480 1481 1486 1488 1485 1482 1480 1481 1482 1480 1482 1484 1486 1481 1485 1475
1418 1424 1429 1433 1438 1442 1447 1453 1459 1465 1472 1479 1485 1486 1486 1487 1493 1495 1501 1509 1502 1486 1481 1481 1481 1483 1485 1484 1484 1483 1483 1481 1480 1478 1483 1482 1484 1478 1478 1480 1482 1485 1484 1488 1486 1479 1470
1405 1411 1418 1423 1429 1433 1438 1443 1449 1455 1461 1469 1475 1477 1475 1477 1485 1487 1492 1493 1470 1475 1474 1479 1482 1483 1483 1484 1486 1485 1484 1481 1481 1477 1478 1483 1481 1476 1475 1475 1479 1483 1486 1483 1484 1486 1482
1392 1397 1404 1412 1418 1423 1428 1434 1439 1445 1451 1458 1462 1463 1463 1470 1475 1478 1479 1462 1466 1465 1468 1472 1474 1472 1479 1480 1484 1484 1480 1479 1480 1481 1479 1478 1479 1474 1474 1474 1476 1477 1479 1487 1490 1491 1481
1380 1385 1391 1398 1405 1412 1417 1424 1430 1436 1441 1446 1443 1448 1451 1461 1468 1475 1464 1461 1460 1462 1467 1470 1466 1463 1466 1473 1476 1479 1470 1475 1474 1478 1480 1481 1479 1479 1474 1475 1478 1479 1480 1481 1486 1487 1484
1367 1372 1379 1384 1392 1399 1406 1412 1421 1426 1433 1437 1435 1442 1444 1450 1465 1466 1462 1459 1460 1463 1465 1467 1468 1462 1460 1465 1471 1473 1468 1467 1470 1475 1476 1479 1481 1478 1473 1475 1476 1476 1478 1480 1483 1484 1488
1354 1359 1365 1372 1379 1387 1394 1401 1409 1416 1421 1424 1427 1436 1442 1447 1448 1454 1456 1457 1458 1460 1461 1463 1464 1463 1464 1466 1470 1466 1464 1465 1466 1470 1474 1476 1478 1475 1469 1476 1477 1474 1475 1479 1488 1492 1491
1341 1347 1351 1360 1366 1375 1384 1388 1396 1404 1411 1415 1417 1432 1439 1442 1437 1438 1446 1453 1454 1455 1458 1460 1459 1460 1464 1467 1465 1465 1466 1469 1466 1469 1471 1472 1473 1472 1470 1466 1472 1478 1473 1475 1483 1495 1483
1328 1333 1339 1346 1354 1363 1369 1379 1385 1393 1400 1405 1404 1410 1412 1435 1434 1433 1436 1441 1447 1448 1454 1457 1460 1457 1456 1466 1468 1471 1472 1475 1472 1472 1472 1474 1477 1473 1471 1467 1466 1465 1468 1471 1473 1470 1473
1313 1319 1327 1334 1343 1349 1356 1363 1374 1382 1391 1395 1392 1401 1409 1415 1423 1428 1430 1428 1431 1439 1445 1447 1448 1452 1456 1456 1456 1464 1470 1474 1474 1475 1475 1475 1478 1472 1471 1466 1459 1461 1463 1462 1462 1456 1455
1299 1306 1314 1321 1330 1335 1344 1353 1363 1370 1379 1377 1381 1387 1394 1406 1414 1420 1413 1415 1421 1431 1437 1437 1442 1450 1454 1455 1459 1463 1465 1470 1471 1473 1473 1477 1478 1474 1468 1463 1461 1457 1446 1446 1447 1443 1445
1286 1294 1301 1308 1316 1322 1332 1339 1350 1358 1363 1369 1372 1379 1391 1393 1403 1403 1408 1414 1417 1422 1428 1435 1439 1444 1452 1454 1458 1461 1464 1466 1467 1469 1469 1470 1469 1469 1465 1467 1463 1434 1440 1440 1443 1438 1437
1273 1279 1288 1294 1300 1311 1317 1328 1338 1345 1354 1359 1360 1370 1376 1388 1393 1403 1407 1410 1418 1422 1428 1434 1437 1441 1447 1452 1457 1459 1459 1462 1456 1457 1459 1463 1466 1468 1463 1459 1439 1436 1436 1439 1439 1435 1443
1258 1264 1271 1277 1286 1298 1305 1315 1325 1334 1345 1351 1351 1359 1369 1375 1384 1390 1400 1404 1413 1418 1426 1431 1437 1439 1444 1449 1452 1451 1450 1445 1449 1448 1457 1460 1463 1466 1461 1459 1445 1430 1439 1441 1444 1436 1440
1240 1245 1253 1262 1272 1286 1295 1305 1315 1324 1337 1338 1342 1351 1360 1369 1379 1383 1389 1395 1406 1413 1420 1430 1433 1438 1441 1443 1446 1446 1448 1445 1443 1446 1451 1459 1461 1456 1454 1454 1438 1437 1437 1439 1440 1437 1438
1212 1218 1232 1246 1260 1275 1284 1295 1307 1313 1321 1330 1339 1344 1352 1365 1378 1381 1386 1390 1401 1408 1413 1425 1430 1435 1440 1439 1442 1446 1447 1445 1447 1446 1444 1444 1448 1451 1451 1450 1443 1438 1437 1439 1437 1435 1434
1164 1182 1207 1230 1248 1263 1277 1286 1292 1301 1312 1322 1335 1341 1347 1361 1376 1383 1388 1392 1398 1407 1413 1421 1423 1426 1429 1434 1442 1447 1449 1451 1450 1445 1446 1448 1441 1444 1448 1433 1435 1436 1437 1435 1434 1431 1431